| time (UTC) | temp F | wind direction | speed MPH | gust MPH | rain 1hr in | rain 24hr in | rain mn in | humidity % | barometer mb |
| 20260831034045 | 72 | 193 | 7.0 | 10.0 | 0.00 | 0.01 | 0.01 | 90 | 1013.8 |
| 20260831033544 | 72 | 190 | 7.0 | 10.0 | 0.00 | 0.01 | 0.01 | 90 | 1013.7 |
| 20260831033102 | 72 | 185 | 6.0 | 10.0 | 0.00 | 0.01 | 0.01 | 91 | 1013.4 |
| 20260831032546 | 72 | 178 | 6.0 | 8.0 | 0.00 | 0.01 | 0.01 | 91 | 1013.9 |
| 20260831032048 | 72 | 186 | 5.0 | 8.0 | 0.00 | 0.01 | 0.01 | 91 | 1014.3 |
| 20260831031601 | 72 | 181 | 4.0 | 7.0 | 0.00 | 0.01 | 0.01 | 90 | 1014.3 |
| 20260831031043 | 72 | 186 | 0.0 | 1.0 | 0.00 | 0.01 | 0.01 | 89 | 1014.5 |
| 20260831030545 | 72 | 0 | 0.0 | 1.0 | 0.00 | 0.01 | 0.01 | 89 | 1014.8 |
| 20260831030114 | 72 | 0 | 0.0 | 3.0 | 0.00 | 0.01 | 0.01 | 90 | 1014.7 |
| 20260831025544 | 72 | 0 | 0.0 | 5.0 | 0.00 | 0.01 | 0.01 | 90 | 1015.0 |
| 20260831025044 | 72 | 186 | 2.0 | 8.0 | 0.00 | 0.01 | 0.01 | 90 | 1014.7 |
| 20260831024638 | 72 | 196 | 3.0 | 8.0 | 0.00 | 0.01 | 0.01 | 90 | 1014.7 |
| 20260831024046 | 72 | 185 | 4.0 | 8.0 | 0.00 | 0.01 | 0.01 | 90 | 1014.4 |
| 20260831023546 | 72 | 190 | 2.0 | 9.0 | 0.00 | 0.01 | 0.01 | 89 | 1014.3 |
| 20260831023100 | 72 | 183 | 2.0 | 11.0 | 0.00 | 0.01 | 0.01 | 90 | 1014.5 |
| 20260831022543 | 72 | 179 | 4.0 | 11.0 | 0.00 | 0.01 | 0.01 | 90 | 1014.5 |
| 20260831022043 | 72 | 200 | 7.0 | 11.0 | 0.00 | 0.01 | 0.01 | 90 | 1014.0 |
| 20260831021604 | 72 | 184 | 6.0 | 11.0 | 0.00 | 0.01 | 0.01 | 90 | 1014.2 |
| 20260831021044 | 72 | 187 | 6.0 | 11.0 | 0.00 | 0.01 | 0.01 | 91 | 1014.2 |
| 20260831020546 | 72 | 194 | 4.0 | 7.0 | 0.00 | 0.01 | 0.01 | 91 | 1014.3 |
| 20260831020059 | 72 | 194 | 3.0 | 11.0 | 0.00 | 0.01 | 0.01 | 91 | 1014.4 |
| 20260831015545 | 72 | 188 | 5.0 | 11.0 | 0.00 | 0.01 | 0.01 | 91 | 1014.5 |
| 20260831015045 | 72 | 185 | 7.0 | 11.0 | 0.00 | 0.01 | 0.01 | 92 | 1014.0 |
| 20260831014612 | 71 | 186 | 4.0 | 13.0 | 0.00 | 0.01 | 0.01 | 91 | 1014.3 |
| 20260831014046 | 71 | 202 | 5.0 | 13.0 | 0.00 | 0.01 | 0.01 | 92 | 1014.5 |
| 20260831013546 | 71 | 182 | 4.0 | 10.0 | 0.00 | 0.01 | 0.01 | 91 | 1014.3 |
| 20260831013113 | 71 | 180 | 4.0 | 6.0 | 0.00 | 0.01 | 0.01 | 92 | 1014.7 |
| 20260831012546 | 71 | 189 | 3.0 | 6.0 | 0.00 | 0.01 | 0.01 | 91 | 1014.7 |
| 20260831012047 | 71 | 186 | 2.0 | 6.0 | 0.00 | 0.01 | 0.01 | 91 | 1014.8 |
| 20260831011605 | 71 | 195 | 1.0 | 6.0 | 0.00 | 0.01 | 0.01 | 91 | 1014.8 |
| 20260831011046 | 71 | 176 | 3.0 | 7.0 | 0.00 | 0.01 | 0.01 | 91 | 1014.6 |
| 20260831010546 | 71 | 188 | 4.0 | 7.0 | 0.00 | 0.01 | 0.01 | 92 | 1014.3 |
| 20260831010105 | 71 | 193 | 4.0 | 8.0 | 0.00 | 0.01 | 0.01 | 92 | 1014.0 |
| 20260831005546 | 71 | 192 | 3.0 | 8.0 | 0.00 | 0.01 | 0.01 | 92 | 1014.0 |
| 20260831005046 | 71 | 202 | 4.0 | 8.0 | 0.00 | 0.01 | 0.01 | 92 | 1013.9 |
| 20260831004602 | 71 | 196 | 4.0 | 6.0 | 0.00 | 0.01 | 0.01 | 91 | 1014.1 |
| 20260831004046 | 71 | 188 | 2.0 | 5.0 | 0.00 | 0.01 | 0.01 | 91 | 1014.2 |
| 20260831003547 | 71 | 180 | 2.0 | 5.0 | 0.00 | 0.01 | 0.01 | 91 | 1014.2 |
| 20260831003059 | 71 | 200 | 2.0 | 5.0 | 0.00 | 0.01 | 0.01 | 91 | 1014.0 |
| 20260831002546 | 71 | 190 | 2.0 | 5.0 | 0.00 | 0.01 | 0.01 | 91 | 1013.9 |
| 20260831002046 | 72 | 200 | 3.0 | 6.0 | 0.00 | 0.01 | 0.01 | 91 | 1014.0 |
| 20260831001607 | 72 | 192 | 2.0 | 8.0 | 0.00 | 0.01 | 0.01 | 91 | 1013.9 |
| 20260831001046 | 72 | 184 | 3.0 | 8.0 | 0.00 | 0.01 | 0.01 | 91 | 1013.9 |
| 20260831000547 | 72 | 181 | 3.0 | 8.0 | 0.00 | 0.01 | 0.01 | 91 | 1013.7 |
| 20260831000105 | 72 | 190 | 3.0 | 10.0 | 0.00 | 0.01 | 0.01 | 91 | 1013.8 |
| 20260830235546 | 72 | 184 | 4.0 | 10.0 | 0.00 | 0.01 | 0.01 | 91 | 1013.6 |
| 20260830235046 | 72 | 191 | 5.0 | 10.0 | 0.00 | 0.01 | 0.01 | 91 | 1013.6 |
| 20260830234608 | 72 | 201 | 5.0 | 10.0 | 0.00 | 0.01 | 0.01 | 91 | 1013.6 |
| 20260830234049 | 72 | 207 | 6.0 | 10.0 | 0.00 | 0.01 | 0.01 | 91 | 1013.5 |
| 20260830233546 | 72 | 198 | 4.0 | 8.0 | 0.00 | 0.01 | 0.01 | 91 | 1013.5 |
| 20260830233106 | 72 | 178 | 4.0 | 7.0 | 0.00 | 0.01 | 0.01 | 91 | 1013.5 |
| 20260830232546 | 72 | 198 | 3.0 | 11.0 | 0.00 | 0.01 | 0.01 | 91 | 1013.7 |
| 20260830232047 | 72 | 181 | 4.0 | 11.0 | 0.00 | 0.01 | 0.01 | 91 | 1013.8 |
| 20260830231605 | 72 | 188 | 6.0 | 13.0 | 0.00 | 0.01 | 0.01 | 91 | 1013.6 |
| 20260830231049 | 72 | 190 | 7.0 | 13.0 | 0.00 | 0.01 | 0.01 | 91 | 1013.5 |
| 20260830230545 | 72 | 193 | 5.0 | 9.0 | 0.00 | 0.01 | 0.01 | 92 | 1013.7 |
| 20260830230104 | 72 | 201 | 5.0 | 9.0 | 0.00 | 0.01 | 0.01 | 92 | 1013.8 |
| 20260830225546 | 72 | 167 | 3.0 | 6.0 | 0.00 | 0.01 | 0.01 | 92 | 1013.9 |
| 20260830225046 | 72 | 186 | 2.0 | 4.0 | 0.00 | 0.01 | 0.01 | 92 | 1014.0 |
| 20260830224610 | 72 | 192 | 1.0 | 4.0 | 0.00 | 0.01 | 0.01 | 93 | 1013.9 |
| 20260830224046 | 72 | 173 | 1.0 | 6.0 | 0.00 | 0.01 | 0.01 | 93 | 1013.9 |
| 20260830223546 | 72 | 192 | 1.0 | 6.0 | 0.00 | 0.01 | 0.01 | 93 | 1013.8 |
| 20260830223105 | 72 | 199 | 3.0 | 6.0 | 0.00 | 0.01 | 0.01 | 93 | 1013.7 |
| 20260830222546 | 72 | 188 | 2.0 | 6.0 | 0.00 | 0.01 | 0.01 | 93 | 1013.8 |
| 20260830222046 | 72 | 195 | 2.0 | 5.0 | 0.00 | 0.01 | 0.01 | 93 | 1013.7 |
| 20260830221603 | 71 | 0 | 0.0 | 1.0 | 0.00 | 0.01 | 0.01 | 92 | 1013.8 |
| 20260830221046 | 71 | 0 | 0.0 | 2.0 | 0.00 | 0.01 | 0.01 | 92 | 1013.9 |
| 20260830220546 | 71 | 199 | 0.0 | 2.0 | 0.00 | 0.01 | 0.01 | 92 | 1013.9 |
| 20260830220103 | 71 | 199 | 0.0 | 2.0 | 0.00 | 0.01 | 0.01 | 92 | 1013.9 |
| 20260830215547 | 71 | 199 | 0.0 | 2.0 | 0.00 | 0.01 | 0.01 | 91 | 1014.0 |
| 20260830215048 | 71 | 0 | 0.0 | 1.0 | 0.00 | 0.01 | 0.01 | 91 | 1013.9 |
| 20260830214605 | 71 | 0 | 0.0 | 1.0 | 0.00 | 0.01 | 0.01 | 91 | 1013.8 |
| 20260830214048 | 71 | 0 | 0.0 | 1.0 | 0.00 | 0.01 | 0.01 | 90 | 1013.9 |
| 20260830213546 | 71 | 0 | 0.0 | 1.0 | 0.00 | 0.01 | 0.01 | 90 | 1013.8 |
| 20260830213057 | 71 | 0 | 0.0 | 2.0 | 0.00 | 0.01 | 0.01 | 90 | 1013.8 |
| 20260830212544 | 71 | 0 | 0.0 | 2.0 | 0.00 | 0.01 | 0.01 | 90 | 1013.7 |
| 20260830212046 | 71 | 199 | 0.0 | 4.0 | 0.00 | 0.01 | 0.01 | 90 | 1013.5 |
| 20260830211602 | 71 | 199 | 1.0 | 6.0 | 0.00 | 0.01 | 0.01 | 90 | 1013.6 |
| 20260830211044 | 72 | 195 | 2.0 | 6.0 | 0.00 | 0.01 | 0.01 | 90 | 1013.4 |
| 20260830210545 | 72 | 194 | 2.0 | 6.0 | 0.00 | 0.01 | 0.01 | 90 | 1013.5 |
| 20260830210101 | 72 | 0 | 0.0 | 4.0 | 0.00 | 0.01 | 0.01 | 89 | 1013.5 |
| 20260830205544 | 72 | 184 | 1.0 | 4.0 | 0.00 | 0.01 | 0.01 | 89 | 1013.6 |
| 20260830205044 | 72 | 173 | 0.0 | 4.0 | 0.00 | 0.01 | 0.01 | 89 | 1013.7 |
| 20260830204603 | 72 | 0 | 1.0 | 4.0 | 0.00 | 0.01 | 0.01 | 89 | 1013.7 |
| 20260830204049 | 72 | 199 | 2.0 | 3.0 | 0.00 | 0.01 | 0.01 | 89 | 1013.7 |
| 20260830203544 | 72 | 0 | 1.0 | 4.0 | 0.00 | 0.01 | 0.01 | 88 | 1013.5 |
| 20260830203123 | 72 | 185 | 1.0 | 5.0 | 0.00 | 0.01 | 0.01 | 88 | 1013.8 |
| 20260830202546 | 72 | 195 | 2.0 | 5.0 | 0.00 | 0.01 | 0.01 | 88 | 1013.8 |
| 20260830202043 | 72 | 169 | 2.0 | 6.0 | 0.00 | 0.01 | 0.01 | 88 | 1013.7 |
| 20260830201615 | 72 | 178 | 3.0 | 6.0 | 0.00 | 0.01 | 0.01 | 87 | 1013.8 |
| 20260830201045 | 73 | 191 | 3.0 | 5.0 | 0.00 | 0.01 | 0.01 | 87 | 1013.9 |
| 20260830200544 | 73 | 200 | 3.0 | 5.0 | 0.00 | 0.01 | 0.01 | 86 | 1013.9 |
| 20260830200057 | 73 | 200 | 2.0 | 7.0 | 0.00 | 0.01 | 0.01 | 85 | 1014.0 |
| 20260830195544 | 74 | 206 | 2.0 | 7.0 | 0.00 | 0.01 | 0.01 | 85 | 1014.0 |
| 20260830195044 | 74 | 178 | 3.0 | 6.0 | 0.00 | 0.01 | 0.01 | 84 | 1014.3 |
| 20260830194608 | 75 | 184 | 1.0 | 6.0 | 0.00 | 0.01 | 0.01 | 83 | 1014.4 |
| 20260830194044 | 75 | 180 | 1.0 | 6.0 | 0.00 | 0.01 | 0.01 | 83 | 1014.3 |
| 20260830193544 | 75 | 198 | 2.0 | 5.0 | 0.00 | 0.01 | 0.01 | 83 | 1014.3 |
| 20260830193106 | 75 | 186 | 1.0 | 5.0 | 0.00 | 0.01 | 0.01 | 82 | 1014.4 |
| 20260830192544 | 76 | 180 | 3.0 | 7.0 | 0.00 | 0.01 | 0.01 | 82 | 1014.2 |
| 20260830192044 | 76 | 191 | 3.0 | 7.0 | 0.00 | 0.01 | 0.01 | 80 | 1014.3 |
| 20260830191603 | 77 | 185 | 4.0 | 9.0 | 0.00 | 0.01 | 0.01 | 79 | 1014.3 |
| 20260830191044 | 77 | 180 | 3.0 | 10.0 | 0.00 | 0.01 | 0.01 | 78 | 1014.3 |
| 20260830190544 | 78 | 173 | 4.0 | 10.0 | 0.00 | 0.01 | 0.01 | 77 | 1014.3 |
| 20260830185544 | 79 | 178 | 4.0 | 10.0 | 0.00 | 0.01 | 0.01 | 74 | 1014.0 |
| 20260830185044 | 79 | 194 | 4.0 | 12.0 | 0.00 | 0.01 | 0.01 | 75 | 1013.9 |
| 20260830184559 | 79 | 175 | 6.0 | 12.0 | 0.00 | 0.01 | 0.01 | 74 | 1013.8 |
| 20260830184044 | 80 | 186 | 8.0 | 12.0 | 0.00 | 0.01 | 0.01 | 73 | 1013.6 |
| 20260830183545 | 80 | 169 | 4.0 | 13.0 | 0.00 | 0.01 | 0.01 | 74 | 1013.6 |
| 20260830183112 | 80 | 182 | 7.0 | 15.0 | 0.00 | 0.01 | 0.01 | 72 | 1013.7 |
| 20260830182545 | 80 | 176 | 6.0 | 15.0 | 0.00 | 0.01 | 0.01 | 71 | 1013.5 |
| 20260830182046 | 81 | 201 | 7.0 | 14.0 | 0.00 | 0.01 | 0.01 | 72 | 1013.4 |
| 20260830181625 | 81 | 195 | 6.0 | 14.0 | 0.00 | 0.01 | 0.01 | 71 | 1013.3 |
| 20260830181045 | 81 | 172 | 7.0 | 14.0 | 0.00 | 0.01 | 0.01 | 71 | 1013.2 |
| 20260830180545 | 81 | 178 | 7.0 | 12.0 | 0.00 | 0.01 | 0.01 | 70 | 1013.2 |
| 20260830180113 | 81 | 180 | 7.0 | 14.0 | 0.00 | 0.01 | 0.01 | 70 | 1013.0 |
| 20260830175545 | 81 | 187 | 6.0 | 14.0 | 0.00 | 0.01 | 0.01 | 70 | 1012.9 |
| 20260830175045 | 81 | 186 | 9.0 | 13.0 | 0.00 | 0.01 | 0.01 | 69 | 1012.8 |
| 20260830174617 | 82 | 185 | 5.0 | 9.0 | 0.00 | 0.01 | 0.01 | 69 | 1012.9 |
| 20260830174048 | 81 | 190 | 4.0 | 12.0 | 0.00 | 0.01 | 0.01 | 68 | 1012.9 |
| 20260830173545 | 81 | 188 | 6.0 | 17.0 | 0.00 | 0.01 | 0.01 | 67 | 1012.7 |
| 20260830173120 | 82 | 203 | 7.0 | 17.0 | 0.00 | 0.01 | 0.01 | 67 | 1012.8 |
| 20260830172547 | 82 | 200 | 10.0 | 17.0 | 0.00 | 0.01 | 0.01 | 66 | 1012.9 |
| 20260830172045 | 82 | 176 | 7.0 | 11.0 | 0.00 | 0.01 | 0.01 | 67 | 1013.1 |
| 20260830171619 | 82 | 189 | 6.0 | 14.0 | 0.00 | 0.01 | 0.01 | 67 | 1012.9 |
| 20260830171045 | 82 | 168 | 7.0 | 14.0 | 0.00 | 0.01 | 0.01 | 68 | 1012.9 |
| 20260830170548 | 82 | 182 | 6.0 | 11.0 | 0.00 | 0.01 | 0.01 | 69 | 1012.7 |
| 20260830170110 | 82 | 175 | 4.0 | 11.0 | 0.00 | 0.01 | 0.01 | 69 | 1012.9 |
| 20260830165546 | 81 | 197 | 5.0 | 11.0 | 0.00 | 0.01 | 0.01 | 71 | 1012.8 |
| 20260830165045 | 81 | 192 | 6.0 | 12.0 | 0.00 | 0.01 | 0.01 | 70 | 1013.0 |
| 20260830164621 | 81 | 186 | 5.0 | 12.0 | 0.00 | 0.01 | 0.01 | 71 | 1013.1 |
| 20260830164045 | 80 | 200 | 6.0 | 12.0 | 0.00 | 0.01 | 0.01 | 70 | 1013.1 |
| 20260830163545 | 80 | 181 | 6.0 | 11.0 | 0.00 | 0.01 | 0.01 | 71 | 1013.1 |
| 20260830163112 | 80 | 184 | 5.0 | 13.0 | 0.00 | 0.01 | 0.01 | 73 | 1013.1 |
| 20260830162546 | 80 | 170 | 6.0 | 13.0 | 0.00 | 0.01 | 0.01 | 73 | 1013.1 |
| 20260830162045 | 80 | 199 | 6.0 | 13.0 | 0.00 | 0.01 | 0.01 | 71 | 1013.1 |
| 20260830161604 | 79 | 200 | 6.0 | 14.0 | 0.00 | 0.01 | 0.01 | 71 | 1013.2 |
| 20260830161044 | 79 | 194 | 8.0 | 14.0 | 0.00 | 0.01 | 0.01 | 72 | 1013.2 |
| 20260830160545 | 79 | 229 | 6.0 | 11.0 | 0.00 | 0.01 | 0.01 | 75 | 1013.3 |
| 20260830160105 | 79 | 196 | 5.0 | 11.0 | 0.00 | 0.01 | 0.01 | 75 | 1013.4 |
| 20260830155545 | 78 | 186 | 4.0 | 9.0 | 0.00 | 0.01 | 0.01 | 76 | 1013.5 |
| 20260830155045 | 78 | 178 | 4.0 | 9.0 | 0.00 | 0.01 | 0.01 | 76 | 1013.4 |
| 20260830154601 | 77 | 186 | 3.0 | 8.0 | 0.00 | 0.01 | 0.01 | 77 | 1013.4 |
| 20260830154044 | 77 | 186 | 3.0 | 10.0 | 0.00 | 0.01 | 0.01 | 76 | 1013.4 |
| 20260830153546 | 77 | 196 | 4.0 | 13.0 | 0.00 | 0.01 | 0.01 | 78 | 1013.3 |
| 20260830153108 | 76 | 185 | 6.0 | 13.0 | 0.00 | 0.01 | 0.01 | 77 | 1013.2 |
| 20260830152545 | 76 | 184 | 5.0 | 10.0 | 0.00 | 0.01 | 0.01 | 79 | 1013.2 |
| 20260830152045 | 76 | 179 | 4.0 | 7.0 | 0.00 | 0.01 | 0.01 | 79 | 1013.1 |
| 20260830151605 | 75 | 194 | 3.0 | 10.0 | 0.00 | 0.01 | 0.01 | 80 | 1013.3 |
| 20260830151046 | 75 | 182 | 3.0 | 11.0 | 0.00 | 0.01 | 0.01 | 80 | 1013.3 |
| 20260830150546 | 75 | 202 | 4.0 | 12.0 | 0.00 | 0.01 | 0.01 | 80 | 1013.1 |
| 20260830150101 | 75 | 209 | 6.0 | 14.0 | 0.00 | 0.01 | 0.01 | 80 | 1013.1 |
| 20260830145545 | 74 | 183 | 7.0 | 14.0 | 0.00 | 0.01 | 0.01 | 81 | 1013.2 |
| 20260830145045 | 74 | 169 | 7.0 | 13.0 | 0.00 | 0.01 | 0.01 | 81 | 1013.3 |
| 20260830144604 | 74 | 193 | 5.0 | 14.0 | 0.00 | 0.01 | 0.01 | 82 | 1013.2 |
| 20260830144049 | 73 | 196 | 6.0 | 14.0 | 0.00 | 0.01 | 0.01 | 82 | 1013.0 |
| 20260830143546 | 73 | 182 | 7.0 | 14.0 | 0.00 | 0.01 | 0.01 | 83 | 1012.9 |
| 20260830143115 | 73 | 188 | 6.0 | 13.0 | 0.01 | 0.01 | 0.01 | 83 | 1013.0 |
| 20260830142546 | 72 | 186 | 7.0 | 14.0 | 0.01 | 0.01 | 0.01 | 84 | 1013.1 |
| 20260830142045 | 72 | 186 | 7.0 | 14.0 | 0.01 | 0.01 | 0.01 | 84 | 1013.2 |
| 20260830141602 | 72 | 188 | 8.0 | 14.0 | 0.01 | 0.01 | 0.01 | 85 | 1013.3 |
| 20260830141045 | 72 | 196 | 7.0 | 16.0 | 0.01 | 0.01 | 0.01 | 86 | 1013.5 |
| 20260830140545 | 71 | 178 | 6.0 | 16.0 | 0.01 | 0.01 | 0.01 | 86 | 1013.5 |
| 20260830140104 | 71 | 184 | 9.0 | 16.0 | 0.01 | 0.01 | 0.01 | 86 | 1013.3 |
| 20260830135545 | 71 | 188 | 9.0 | 15.0 | 0.01 | 0.01 | 0.01 | 87 | 1013.3 |
| 20260830135048 | 70 | 192 | 7.0 | 13.0 | 0.01 | 0.01 | 0.01 | 88 | 1013.5 |
| 20260830134623 | 70 | 184 | 7.0 | 15.0 | 0.01 | 0.01 | 0.01 | 88 | 1013.6 |
| 20260830134047 | 70 | 188 | 7.0 | 15.0 | 0.01 | 0.01 | 0.01 | 88 | 1013.6 |
| 20260830133549 | 70 | 171 | 7.0 | 12.0 | 0.01 | 0.01 | 0.01 | 89 | 1013.6 |
| 20260830133141 | 70 | 186 | 6.0 | 12.0 | 0.00 | 0.00 | 0.00 | 89 | 1013.7 |
| 20260830132545 | 69 | 186 | 6.0 | 12.0 | 0.00 | 0.00 | 0.00 | 89 | 1013.8 |
| 20260830132045 | 69 | 187 | 7.0 | 12.0 | 0.00 | 0.00 | 0.00 | 90 | 1013.8 |
| 20260830131616 | 69 | 189 | 6.0 | 12.0 | 0.00 | 0.00 | 0.00 | 90 | 1013.9 |
| 20260830131045 | 69 | 183 | 8.0 | 12.0 | 0.00 | 0.00 | 0.00 | 90 | 1013.9 |
| 20260830130545 | 69 | 188 | 7.0 | 12.0 | 0.00 | 0.00 | 0.00 | 90 | 1013.9 |
| 20260830130106 | 69 | 188 | 7.0 | 11.0 | 0.00 | 0.00 | 0.00 | 90 | 1013.8 |
| 20260830125545 | 69 | 182 | 6.0 | 13.0 | 0.00 | 0.00 | 0.00 | 90 | 1014.0 |
| 20260830125045 | 69 | 183 | 7.0 | 13.0 | 0.00 | 0.00 | 0.00 | 91 | 1014.1 |
| 20260830124618 | 69 | 194 | 7.0 | 11.0 | 0.00 | 0.00 | 0.00 | 91 | 1014.1 |
| 20260830124045 | 69 | 195 | 5.0 | 12.0 | 0.00 | 0.00 | 0.00 | 91 | 1014.2 |
| 20260830123545 | 69 | 180 | 4.0 | 12.0 | 0.00 | 0.00 | 0.00 | 91 | 1014.2 |
| 20260830123100 | 69 | 188 | 6.0 | 11.0 | 0.00 | 0.00 | 0.00 | 91 | 1014.2 |
| 20260830122544 | 69 | 188 | 5.0 | 10.0 | 0.00 | 0.00 | 0.00 | 91 | 1014.0 |
| 20260830122138 | 68 | 190 | 5.0 | 12.0 | 0.00 | 0.00 | 0.00 | 91 | 1014.0 |
| 20260830121603 | 68 | 188 | 4.0 | 12.0 | 0.00 | 0.00 | 0.00 | 91 | 1014.0 |
| 20260830121044 | 68 | 185 | 7.0 | 11.0 | 0.00 | 0.00 | 0.00 | 91 | 1013.9 |
| 20260830120545 | 68 | 188 | 5.0 | 13.0 | 0.00 | 0.00 | 0.00 | 90 | 1014.1 |
| 20260830115545 | 69 | 179 | 6.0 | 12.0 | 0.00 | 0.00 | 0.00 | 90 | 1014.2 |
| 20260830115046 | 69 | 181 | 6.0 | 14.0 | 0.00 | 0.00 | 0.00 | 90 | 1014.1 |
| 20260830114619 | 69 | 192 | 8.0 | 14.0 | 0.00 | 0.00 | 0.00 | 90 | 1014.0 |
| 20260830114045 | 69 | 184 | 6.0 | 12.0 | 0.00 | 0.00 | 0.00 | 89 | 1013.8 |
| 20260830113545 | 69 | 186 | 5.0 | 12.0 | 0.00 | 0.00 | 0.00 | 88 | 1013.9 |
| 20260830113103 | 69 | 174 | 6.0 | 13.0 | 0.00 | 0.00 | 0.00 | 88 | 1013.8 |
| 20260830112546 | 69 | 196 | 6.0 | 13.0 | 0.00 | 0.00 | 0.00 | 88 | 1013.9 |
| 20260830112046 | 70 | 203 | 7.0 | 12.0 | 0.00 | 0.00 | 0.00 | 86 | 1013.7 |
| 20260830111600 | 70 | 180 | 5.0 | 12.0 | 0.00 | 0.00 | 0.00 | 86 | 1013.9 |
| 20260830111045 | 70 | 176 | 6.0 | 12.0 | 0.00 | 0.00 | 0.00 | 85 | 1013.8 |
| 20260830110544 | 70 | 192 | 7.0 | 12.0 | 0.00 | 0.00 | 0.00 | 85 | 1013.4 |
| 20260830105549 | 70 | 200 | 8.0 | 14.0 | 0.00 | 0.00 | 0.00 | 84 | 1013.3 |
| 20260830105045 | 70 | 191 | 7.0 | 12.0 | 0.00 | 0.00 | 0.00 | 85 | 1013.2 |
| 20260830104601 | 70 | 184 | 6.0 | 12.0 | 0.00 | 0.00 | 0.00 | 84 | 1013.4 |
| 20260830104045 | 70 | 201 | 6.0 | 12.0 | 0.00 | 0.00 | 0.00 | 85 | 1013.4 |
| 20260830103547 | 70 | 187 | 6.0 | 10.0 | 0.00 | 0.00 | 0.00 | 85 | 1013.3 |
| 20260830103103 | 69 | 182 | 6.0 | 11.0 | 0.00 | 0.00 | 0.00 | 86 | 1013.4 |
| 20260830102546 | 69 | 181 | 7.0 | 12.0 | 0.00 | 0.00 | 0.00 | 86 | 1013.2 |
| 20260830102044 | 69 | 186 | 7.0 | 16.0 | 0.00 | 0.00 | 0.00 | 87 | 1013.2 |
| 20260830101601 | 68 | 192 | 8.0 | 18.0 | 0.00 | 0.00 | 0.00 | 89 | 1012.9 |
| 20260830101045 | 67 | 196 | 11.0 | 21.0 | 0.00 | 0.00 | 0.00 | 91 | 1012.9 |
| 20260830100547 | 67 | 211 | 11.0 | 21.0 | 0.00 | 0.00 | 0.00 | 91 | 1013.1 |
| 20260830095547 | 68 | 194 | 12.0 | 19.0 | 0.00 | 0.00 | 0.00 | 92 | 1013.4 |
| 20260830095047 | 68 | 181 | 12.0 | 19.0 | 0.00 | 0.00 | 0.00 | 92 | 1013.7 |
| 20260830094604 | 68 | 171 | 13.0 | 19.0 | 0.00 | 0.00 | 0.00 | 92 | 1013.8 |
| 20260830094045 | 68 | 193 | 11.0 | 17.0 | 0.00 | 0.00 | 0.00 | 93 | 1013.8 |
| 20260830093546 | 68 | 182 | 8.0 | 16.0 | 0.00 | 0.00 | 0.00 | 92 | 1014.2 |
| 20260830093100 | 68 | 186 | 7.0 | 13.0 | 0.00 | 0.00 | 0.00 | 91 | 1014.1 |
| 20260830092545 | 68 | 191 | 5.0 | 16.0 | 0.00 | 0.00 | 0.00 | 90 | 1014.3 |
| 20260830092045 | 68 | 186 | 7.0 | 17.0 | 0.00 | 0.00 | 0.00 | 89 | 1014.2 |
| 20260830091559 | 69 | 176 | 11.0 | 17.0 | 0.00 | 0.00 | 0.00 | 89 | 1014.2 |
| 20260830091048 | 70 | 204 | 10.0 | 17.0 | 0.00 | 0.00 | 0.00 | 87 | 1014.3 |
| 20260830090547 | 70 | 189 | 1.0 | 4.0 | 0.00 | 0.00 | 0.00 | 83 | 1014.8 |
| 20260830090106 | 70 | 0 | 0.0 | 3.0 | 0.00 | 0.00 | 0.00 | 82 | 1015.0 |
| 20260830085546 | 70 | 0 | 0.0 | 3.0 | 0.00 | 0.00 | 0.00 | 82 | 1014.6 |
| 20260830085046 | 70 | 201 | 1.0 | 5.0 | 0.00 | 0.00 | 0.00 | 82 | 1014.2 |
| 20260830084607 | 70 | 174 | 2.0 | 6.0 | 0.00 | 0.00 | 0.00 | 82 | 1014.1 |
| 20260830084048 | 70 | 177 | 2.0 | 7.0 | 0.00 | 0.00 | 0.00 | 82 | 1013.9 |
| 20260830083545 | 70 | 183 | 3.0 | 9.0 | 0.00 | 0.00 | 0.00 | 82 | 1013.8 |
| 20260830083112 | 70 | 178 | 5.0 | 11.0 | 0.00 | 0.00 | 0.00 | 82 | 1013.8 |
| 20260830082545 | 70 | 188 | 7.0 | 11.0 | 0.00 | 0.00 | 0.00 | 82 | 1013.6 |
| 20260830082046 | 70 | 194 | 5.0 | 11.0 | 0.00 | 0.00 | 0.00 | 82 | 1013.5 |
| 20260830081604 | 70 | 193 | 6.0 | 11.0 | 0.00 | 0.00 | 0.00 | 82 | 1013.7 |
| 20260830081045 | 70 | 190 | 6.0 | 10.0 | 0.00 | 0.00 | 0.00 | 83 | 1013.5 |
| 20260830080549 | 70 | 184 | 6.0 | 11.0 | 0.00 | 0.00 | 0.00 | 82 | 1013.5 |
| 20260830080104 | 70 | 189 | 7.0 | 13.0 | 0.00 | 0.00 | 0.00 | 83 | 1013.5 |
| 20260830075545 | 70 | 190 | 9.0 | 13.0 | 0.00 | 0.00 | 0.00 | 83 | 1013.6 |
| 20260830075044 | 70 | 187 | 8.0 | 12.0 | 0.00 | 0.00 | 0.00 | 83 | 1013.8 |
| 20260830074604 | 70 | 196 | 5.0 | 13.0 | 0.00 | 0.00 | 0.00 | 83 | 1013.9 |
| 20260830074044 | 70 | 185 | 6.0 | 13.0 | 0.00 | 0.00 | 0.00 | 83 | 1013.8 |
| 20260830073546 | 70 | 175 | 8.0 | 13.0 | 0.00 | 0.00 | 0.00 | 83 | 1013.8 |
| 20260830073103 | 70 | 187 | 6.0 | 9.0 | 0.00 | 0.00 | 0.00 | 84 | 1014.1 |
| 20260830072545 | 70 | 190 | 5.0 | 9.0 | 0.00 | 0.00 | 0.00 | 84 | 1014.2 |
| 20260830072045 | 70 | 185 | 4.0 | 9.0 | 0.00 | 0.00 | 0.00 | 84 | 1014.4 |
| 20260830071603 | 70 | 186 | 5.0 | 9.0 | 0.00 | 0.00 | 0.00 | 84 | 1014.4 |
| 20260830071049 | 70 | 193 | 5.0 | 9.0 | 0.00 | 0.00 | 0.00 | 84 | 1014.5 |
| 20260830070549 | 70 | 192 | 5.0 | 9.0 | 0.00 | 0.00 | 0.00 | 84 | 1014.5 |
| 20260830070111 | 70 | 190 | 5.0 | 8.0 | 0.00 | 0.00 | 0.00 | 84 | 1014.6 |
| 20260830065544 | 70 | 180 | 4.0 | 8.0 | 0.00 | 0.00 | 0.00 | 84 | 1014.9 |
| 20260830065046 | 70 | 190 | 5.0 | 8.0 | 0.00 | 0.00 | 0.00 | 84 | 1014.7 |
| 20260830064600 | 69 | 186 | 3.0 | 6.0 | 0.00 | 0.00 | 0.00 | 85 | 1015.0 |
| 20260830064044 | 69 | 187 | 1.0 | 4.0 | 0.00 | 0.00 | 0.00 | 85 | 1015.1 |
| 20260830063545 | 69 | 179 | 2.0 | 5.0 | 0.00 | 0.00 | 0.00 | 85 | 1015.1 |
| 20260830063106 | 69 | 186 | 3.0 | 5.0 | 0.00 | 0.00 | 0.00 | 85 | 1015.1 |
| 20260830062545 | 69 | 186 | 3.0 | 6.0 | 0.00 | 0.00 | 0.00 | 85 | 1015.1 |
| 20260830062044 | 69 | 181 | 3.0 | 6.0 | 0.00 | 0.00 | 0.00 | 85 | 1015.0 |
| 20260830061609 | 69 | 194 | 3.0 | 6.0 | 0.00 | 0.00 | 0.00 | 85 | 1015.0 |
| 20260830061044 | 69 | 181 | 3.0 | 5.0 | 0.00 | 0.00 | 0.00 | 85 | 1015.1 |
| 20260830060545 | 70 | 173 | 3.0 | 5.0 | 0.00 | 0.00 | 0.00 | 84 | 1015.2 |
| 20260830055548 | 70 | 192 | 2.0 | 5.0 | 0.00 | 0.00 | 0.00 | 84 | 1015.3 |
| 20260830055044 | 70 | 175 | 3.0 | 5.0 | 0.00 | 0.00 | 0.00 | 84 | 1015.3 |
| 20260830054605 | 70 | 177 | 3.0 | 5.0 | 0.00 | 0.00 | 0.00 | 84 | 1015.3 |
| 20260830054044 | 70 | 193 | 3.0 | 6.0 | 0.00 | 0.00 | 0.00 | 84 | 1015.3 |
| 20260830053544 | 70 | 195 | 3.0 | 6.0 | 0.00 | 0.00 | 0.00 | 84 | 1015.4 |
| 20260830053101 | 70 | 180 | 3.0 | 6.0 | 0.00 | 0.00 | 0.00 | 84 | 1015.5 |
| 20260830052545 | 70 | 180 | 3.0 | 6.0 | 0.00 | 0.00 | 0.00 | 83 | 1015.4 |
| 20260830052045 | 70 | 190 | 3.0 | 6.0 | 0.00 | 0.00 | 0.00 | 83 | 1015.4 |
| 20260830051602 | 70 | 189 | 2.0 | 5.0 | 0.00 | 0.00 | 0.00 | 83 | 1015.5 |
| 20260830051045 | 70 | 188 | 2.0 | 5.0 | 0.00 | 0.00 | 0.00 | 83 | 1015.6 |
| 20260830050545 | 71 | 181 | 1.0 | 5.0 | 0.00 | 0.00 | 0.00 | 83 | 1015.4 |
| 20260830050106 | 71 | 188 | 2.0 | 5.0 | 0.00 | 0.00 | 0.00 | 83 | 1015.6 |
| 20260830045544 | 71 | 199 | 2.0 | 5.0 | 0.00 | 0.00 | 0.00 | 83 | 1015.5 |
| 20260830045044 | 71 | 182 | 3.0 | 6.0 | 0.00 | 0.00 | 0.00 | 82 | 1015.5 |
| 20260830044603 | 71 | 188 | 3.0 | 6.0 | 0.00 | 0.00 | 0.00 | 82 | 1015.4 |
| 20260830044047 | 71 | 187 | 3.0 | 6.0 | 0.00 | 0.00 | 0.00 | 82 | 1015.5 |
| 20260830043545 | 71 | 178 | 3.0 | 7.0 | 0.00 | 0.00 | 0.00 | 82 | 1015.4 |
| 20260830043101 | 71 | 194 | 4.0 | 7.0 | 0.00 | 0.00 | 0.00 | 82 | 1015.4 |
| 20260830042545 | 71 | 185 | 4.0 | 7.0 | 0.00 | 0.00 | 0.00 | 83 | 1015.4 |
| 20260830042044 | 71 | 193 | 4.0 | 7.0 | 0.00 | 0.00 | 0.00 | 82 | 1015.4 |
| 20260830041559 | 71 | 200 | 4.0 | 7.0 | 0.00 | 0.00 | 0.00 | 82 | 1015.4 |
| 20260830041044 | 71 | 195 | 4.0 | 8.0 | 0.00 | 0.00 | 0.00 | 81 | 1015.5 |
| 20260830040544 | 71 | 191 | 4.0 | 8.0 | 0.00 | 0.00 | 0.00 | 81 | 1015.5 |
| 20260830040109 | 71 | 186 | 4.0 | 9.0 | 0.00 | 0.00 | 0.00 | 82 | 1015.4 |
| 20260830035545 | 71 | 195 | 5.0 | 9.0 | 0.00 | 0.00 | 0.00 | 81 | 1015.5 |
| 20260830035045 | 71 | 201 | 5.0 | 8.0 | 0.00 | 0.00 | 0.00 | 81 | 1015.5 |
| 20260830034627 | 71 | 178 | 4.0 | 8.0 | 0.00 | 0.00 | 0.00 | 81 | 1015.7 |